HISPASAT 1C

Last updated on Fri Jul 28 2017 00:17:28 GMT+0000 (Coordinated Universal Time)

1 26071U 00007A 17207.90172969 .00000075 00000-0 00000-0 0 9995 2 26071 0.6470 89.7705 0004821 91.5636 144.0120 0.99200579 15072

Satellite not in orbit

HISPASAT 1C